Regional Weather Roundup
Issued by NWS Green Bay, WI

Home | Current Version | Previous Version | Text Only | Print | Product List | Glossary On
Versions: 1 2 3 4 5 6 7 8 9 10 11 12 13 14 15 16 17 18 19 20 21 22 23 24 25 26 27 28 29 30 31 32 33 34 35 36 37 38 39 40 41 42 43 44 45 46 47 48 49 50
000
ASUS43 KGRB 231810
RWRGRB

NORTH-CENTRAL AND NORTHEAST WISCONSIN REGIONAL WEATHER ROUNDUP
NATIONAL WEATHER SERVICE GREEN BAY WI
100 PM CDT WED JUL 23 2014

WIZ005-009-010>012-018-019-231900-
NORTH CENTRAL WISCONSIN

CITY           SKY/WX    TMP DP  RH WIND       PRES   REMARKS
IRONWOOD       NOT AVBL
MANITOWISH WTR CLOUDY    66  54  66 NE5       30.24F
ARBOR VITAE    PTSUNNY   74  57  56 NE7       30.24F
EAGLE RIVER    PTSUNNY   67  49  52 N6        30.24F
LAND O LAKES   CLOUDY    66  51  57 NE3       30.26S
RHINELANDER    CLOUDY    67  51  56 VRB5      30.25S
PHILLIPS       MOSUNNY   72  54  54 N8        30.22F
ANTIGO         MOSUNNY   70  51  51 N9        30.23F
TOMAHAWK       PTSUNNY   70  55  59 NE7       30.24F
MERRILL        MOSUNNY   69  55  60 NE10      30.22F
$$

WIZ013-073-231900-
NORTHEAST WISCONSIN

CITY           SKY/WX    TMP DP  RH WIND       PRES   REMARKS
IRON MOUNTAIN  MOSUNNY   70  46  42 N8G16     30.22S
MARINETTE      MOSUNNY   70  48  46 E8        30.20R
OCONTO         MOSUNNY   72  49  44 N13G21    30.19F
$$

WIZ017-030-035>037-045-231900-
CENTRAL WISCONSIN

CITY           SKY/WX    TMP DP  RH WIND       PRES   REMARKS
MEDFORD        PTSUNNY   70  55  58 N6        30.23S
WAUSAU         MOSUNNY   74  54  49 N8        30.20F
MOSINEE        PTSUNNY   72  54  53 N12       30.23S
MARSHFIELD     MOSUNNY   75  55  49 VRB7      30.21F
WISC RAPIDS    MOSUNNY   77  53  43 N15       30.22F
STEVENS POINT  PTSUNNY   72  52  49 N8        30.21S
WAUPACA        PTSUNNY   77  49  37 NE8       30.20F
SHAWANO        PTSUNNY   73  49  41 N13       30.20S
CLINTONVILLE   CLOUDY    73  48  40 N8        30.20S
$$

WIZ038-039-048-051-231900-
FOX VALLEY

CITY           SKY/WX    TMP DP  RH WIND       PRES   REMARKS
NWS GREEN BAY  MOSUNNY   74  53  48 NE12      30.19F
APPLETON       PTSUNNY   72  50  46 N14G22    30.20F
OSHKOSH        MOSUNNY   75  51  43 N16       30.18F
FOND DU LAC    SUNNY     74  51  44 NE14      30.20F
$$

WIZ022-050-052-231900-
EAST CENTRAL WISCONSIN

CITY           SKY/WX    TMP DP  RH WIND       PRES   REMARKS
STURGEON BAY   SUNNY     68  48  49 N13       30.21S
MANITOWOC      SUNNY     66  53  63 E12G18    30.19S
SHEBOYGAN      SUNNY     66  54  65 NE15      30.19S
$$

LMZ563-521-522-541>543-231900-
LAKESHORE

STATION/POSITION TIME  TEMP    WIND        PRES    VSBY  WAVE
                       AIR SEA DIR/SP/G                  HT/PER
                 (UTC) (F)     (DEG/KT/KT) (MB)    (MI)  (FT/S)
SHEBOYGAN LKSHOR 1800   57      20/  7/  8 1022.9R
KEWAUNEE LKSHORE 1800   58      40/  4/  6 1023.5S
NORTHPORT PIER   1800   64     350/ 15/ 19 1022.7S
N MID LAKE BUOY  1800   55 54  300/  4/  6 1022.0R         1/ 4
STURGEON BAY CG  1800   70 64  360/ 11     1022.6      6   2
CHAMBERS ISLAND  1800   63      30/ 12/ 15 1023.0R
MENOMINEE LKSHOR 1800   63      40/ 13/ 16 1023.3S
$$



USA.gov is the U.S. government's official web portal to all federal, state and local government web resources and services.